Everett, WA

7:22 AM PDT on March 30, 2017 (GMT -0700)
Snohomish County

Weather History for KPAE - March, 2014

Change the Weather History Date:

Sunday, March 23, 2014

  Actual Average Record
Temperature  
Mean Temperature 44 °F -  
Max Temperature 50 °F 54 °F 67 °F (1968)
Min Temperature 37 °F 38 °F 29 °F (1949)
Degree Days  
Heating Degree Days 22    
Moisture  
Dew Point 35 °F    
Average Humidity 77    
Maximum Humidity 93    
Minimum Humidity 54    
Precipitation  
Precipitation 0.00 in - - ()
Sea Level Pressure  
Sea Level Pressure 30.31 in    
Wind  
Wind Speed 6 mph (North)    
Max Wind Speed 8 mph    
Max Gust Speed -    
Visibility 10 miles    
Events      
Averages and records for this station are not official NWS values.
T = Trace of Precipitation, MM = Missing Value Source: NWS Daily Summary

Daily Weather History Graph

Daily Weather History Graph

Search for Another Location

Airport or City:

Trip Planner

Search our weather history database for the weather conditions in past years. The results will help you decide how hot, cold, wet, or windy it might be!

Date:

Astronomy

Mar. 23, 2014 Rise Set
Actual Time 7:05 AM PDT 7:26 PM PDT
Civil Twilight 6:34 AM PDT 7:57 PM PDT
Nautical Twilight 5:58 AM PDT 8:34 PM PDT
Astronomical Twilight 5:20 AM PDT 9:12 PM PDT
Moon 2:09 AM PDT (3/23) 11:31 AM PDT (3/23)
Length of Visible Light 13h 22m
Length of Day
12h 20m
Waning Gibbous, 53% of the Moon is Illuminated
Mar 23
Waning Gibbous
Mar 23
Last Quarter
Mar 30
New
Apr 7
First Quarter
Apr 15
Full

Hourly Weather History & Observations

Time (PDT) Temp. Windchill Dew Point Humidity Pressure Visibility Wind Dir Wind Speed Gust Speed Precip Events Conditions
12:53 AM 41.0 °F 36.4 °F 37.0 °F 86% 30.28 in 10.0 mi North 6.9 mph - N/A   Overcast
1:53 AM 39.9 °F 35.1 °F 36.0 °F 86% 30.29 in 10.0 mi North 6.9 mph - N/A   Overcast
2:17 AM 39.9 °F 34.5 °F 37.0 °F 89% 30.28 in 10.0 mi NNW 8.1 mph - N/A   Overcast
2:31 AM 39.9 °F 34.5 °F 36.0 °F 86% 30.28 in 10.0 mi North 8.1 mph - N/A   Overcast
2:53 AM 39.9 °F 36.7 °F 36.0 °F 86% 30.29 in 10.0 mi NNW 4.6 mph - N/A   Overcast
3:53 AM 39.9 °F 37.8 °F 36.0 °F 86% 30.29 in 10.0 mi NNW 3.5 mph - N/A   Overcast
4:53 AM 39.9 °F 36.7 °F 36.0 °F 86% 30.30 in 10.0 mi North 4.6 mph - N/A   Overcast
5:15 AM 39.0 °F 34.8 °F 36.0 °F 89% 30.29 in 10.0 mi North 5.8 mph - N/A   Scattered Clouds
5:53 AM 37.9 °F 32.7 °F 35.1 °F 89% 30.31 in 10.0 mi North 6.9 mph - N/A   Partly Cloudy
6:11 AM 39.0 °F 34.8 °F 36.0 °F 89% 30.30 in 10.0 mi North 5.8 mph - N/A   Mostly Cloudy
6:53 AM 37.9 °F 34.4 °F 35.1 °F 89% 30.32 in 9.0 mi North 4.6 mph - N/A   Mostly Cloudy
7:33 AM 37.0 °F 32.4 °F 35.1 °F 93% 30.31 in 7.0 mi NNE 5.8 mph - N/A   Scattered Clouds
7:53 AM 37.0 °F 33.3 °F 35.1 °F 93% 30.33 in 7.0 mi North 4.6 mph - N/A   Scattered Clouds
8:53 AM 39.0 °F 35.7 °F 35.1 °F 86% 30.34 in 10.0 mi North 4.6 mph - N/A   Scattered Clouds
9:53 AM 42.1 °F 39.2 °F 34.0 °F 73% 30.35 in 10.0 mi NE 4.6 mph - N/A   Clear
10:53 AM 44.1 °F 40.8 °F 34.0 °F 68% 30.35 in 10.0 mi Variable 5.8 mph - N/A   Clear
11:53 AM 46.0 °F 42.5 °F 33.1 °F 61% 30.35 in 10.0 mi NNE 6.9 mph - N/A   Partly Cloudy
12:53 PM 46.0 °F 43.1 °F 35.1 °F 66% 30.35 in 10.0 mi West 5.8 mph - N/A   Clear
1:53 PM 48.0 °F - 35.1 °F 61% 30.34 in 10.0 mi Variable 5.8 mph - N/A   Clear
2:53 PM 48.9 °F - 34.0 °F 56% 30.33 in 10.0 mi Variable 4.6 mph - N/A   Clear
3:53 PM 50.0 °F - 34.0 °F 54% 30.32 in 10.0 mi North 8.1 mph - N/A   Clear
4:53 PM 48.9 °F - 34.0 °F 56% 30.31 in 10.0 mi North 6.9 mph - N/A   Clear
5:53 PM 48.0 °F - 34.0 °F 58% 30.30 in 10.0 mi North 8.1 mph - N/A   Clear
6:53 PM 46.0 °F 43.1 °F 35.1 °F 66% 30.30 in 10.0 mi North 5.8 mph - N/A   Clear
7:53 PM 44.1 °F 41.5 °F 35.1 °F 71% 30.29 in 10.0 mi North 4.6 mph - N/A   Clear
8:53 PM 43.0 °F 39.5 °F 36.0 °F 76% 30.30 in 10.0 mi North 5.8 mph - N/A   Clear
9:53 PM 43.0 °F 39.5 °F 37.0 °F 80% 30.29 in 10.0 mi NNE 5.8 mph - N/A   Partly Cloudy
10:53 PM 42.1 °F 38.4 °F 36.0 °F 79% 30.28 in 10.0 mi North 5.8 mph - N/A   Partly Cloudy
11:53 PM 43.0 °F 39.5 °F 36.0 °F 76% 30.27 in 10.0 mi NNE 5.8 mph - N/A   Clear